STARLINK-37790, 69312

Orbit data source: Space-Track

STARLINK-37790, 69312 is a payload satellite owned by SpaceX/Seattle (US) in SSO that was launched on Sat, 30 May 2026 UTC via an FALCON 9 launch vehicle from the Air Force Western Test Range (AFWTR). Payload-class satellites include a variety of spacecraft equipped with specific instruments for various scientific and technological missions. These include communications satellites like Starlink; space stations such as the ISS; scientific satellites like the Hubble; Earth observation satellites from companies like Planet Labs, Umbra, and HawkEye 360; GPS; miniature CubeSats for education and research; and military/defense satellites.

Loading next visibility...
Identifier
69312, 2026-119S
Orbit
SSO
Country
Flag of USUS
Related business
Manufacturer
SpaceX/Seattle
Mission
Operational Commercial Communications
Bus & Motor
STARLINK V2MO, Unknown motor
Mass
575 kg wet, ~530 kg dry
Launch date (UTC)
2026-05-30 (4 months ago)
Launch vehicle
FALCON 9
Launch site
Air Force Western Test Range (AFWTR)
Object type
Payload
Rocket body
Debris
Shape & HBR
Box + 1 Pan, 17.7 m
Radar Cross Section
41.120 m², Large (>1 m²)

Expand to show TLE details & history
Last TLE update: 1 day ago

TLE from 1 day ago
0 STARLINK-37790
1 69312U 26119S   26263.22602319  .00009080  00000-0  28314-3 0  9992
2 69312  97.2833 287.9992 0001165  95.6817 264.4559 15.33455675 18626
Epoch: 2026-09-20T05:25Z
TLE epoch observation values (Epoch: 2026-09-20T05:25:28.403Z)
Latitude
Longitude
-152.4924°
Altitude
468.701 km
Speed
7.632 km/s
True Right ascension
19h 11m 59s
True Declination
0° 00' 00"
Sunlit
Object was in daylight at epoch
Visualization orbit readout
Latitude
Unknown
Longitude
Unknown
Altitude
Unknown
Speed
Unknown
Apparent Right ascension
Unknown
Apparent Declination
Unknown
Sunlit
N/A
Visualization observer readout
Local Sidereal Time
00:09:03
Azimuth
Unknown
Elevation
Unknown
Doppler factor
Unknown
Orbital elements
Apogee altitude
463.251 km
Perigee altitude
461.657 km
Semi-major axis
6,840.591 km
Eccentricity
0.00012
Inclination
97.2833°
RAAN
287.9992°
Arg. of periapsis
95.6817°
True anomaly
264.44261°
Mean anomaly
264.4559°
Eccentric anomaly
264.44926°
Mean motion
3.83621 °/min
Orbital period
93.84 mins
BSTAR
0.00028314
Loading maneuver chart data...
Computing Atmospheric mass density...
Loading historical data...
Loading historical data...
Loading historical data...
Loading historical data...
Loading historical data...
Loading historical data...
Loading historical data...

Documentation

Showing up to 5 results
|